Regional Weather Roundup
Issued by NWS

Home | Current Version | Previous Version | Text Only | Print | Product List | Glossary Off
Versions: 1 2 3 4 5 6 7 8 9 10 11 12 13 14 15 16 17 18 19 20 21 22 23 24 25 26 27 28 29 30 31 32 33 34 35 36 37 38 39 40 41 42 43 44 45 46 47 48 49 50

000
ASUS43 KMPX 231501
RWRMN
WEATHER ROUNDUP FOR MINNESOTA
NATIONAL WEATHER SERVICE TWIN CITIES/CHANHASSEN MN
1000 AM CDT SUN APR 23 2017


NOTE: "FAIR" INDICATES FEW OR NO CLOUDS BELOW 12,000 FEET WITH NO
SIGNIFICANT WEATHER AND/OR OBSTRUCTIONS TO VISIBILITY. N/A MEANS
CURRENT SKY AND/OR WEATHER CONDITIONS ARE NOT AVAILABLE.

MNZ060>063-068>070-231600-
   Twin Cities Metro

CITY           SKY/WX    TMP DP  RH WIND       PRES   REMARKS
TWIN CITIES    MOSUNNY   55  41  59 NE9       30.09F
ST PAUL        SUNNY     54  42  64 NE8       30.10F
CRYSTAL        SUNNY     53  39  59 NE12      30.09F
BLAINE         MOSUNNY   54  41  62 NE12      30.10F
LAKEVILLE      SUNNY     55  41  58 CALM      30.08F
EDEN PRAIRIE   SUNNY     55  41  59 NE8       30.08F
SOUTH ST PAUL  SUNNY     54  40  59 NE5       30.09S
LAKE ELMO      FAIR      54  43  66 NE9       30.10F
$$
MNZ001>005-007-008-013>017-022>024-027-028-231600-
   Northwest Minnesota

CITY           SKY/WX    TMP DP  RH WIND       PRES   REMARKS
BEMIDJI        CLOUDY    31  22  69 E13       30.17S WCI  22
HALLOCK        CLOUDY    34  14  44 E15       30.25S WCI  24
ROSEAU         MOSUNNY   34  18  51 E15       30.25S WCI  24
WARROAD        MOSUNNY   30  16  55 NE16      30.26S WCI  19
CROOKSTON      CLOUDY    34  27  75 E14       30.21R WCI  24
FOSSTON        CLOUDY    30  23  74 E14       30.18S WCI  20
DETROIT LAKES  CLOUDY    34  32  93 E13       30.13S WCI  25
MOORHEAD       CLOUDY    36  30  80 E15       30.14F
PARK RAPIDS    CLOUDY    33  29  85 E9        30.14S WCI  25
MAHNOMEN       FLURRIES  31  29  92 E15       30.15S WCI  20
$$
MNZ006-009>011-018-025>026-231600-
   North Central Minnesota

CITY           SKY/WX    TMP DP  RH WIND       PRES   REMARKS
BAUDETTE       MOSUNNY   31  12  45 NE12      30.24F WCI  22
FLAG ISLAND    CLOUDY    28   9  43 E8        30.26F WCI  20
INTL FALLS     CLOUDY    30  13  49 NE9       30.24F WCI  22
WASKISH        CLOUDY    30  23  74 NE10      30.23R WCI  21
BIG FORK       CLOUDY    32  21  64 E8        30.20F WCI  25
LONGVILLE      SNOW      30  30 100 NE3       30.17F VSB 1/2
GRAND RAPIDS   CLOUDY    31  25  78 VRB3      30.21F
CRANE LAKE     PTSUNNY   28  21  74 NE5       30.25F WCI  23
ORR            CLOUDY    30  19  64 MISG      30.20S
COOK           MOSUNNY   30  21  69 NE3       30.22S
WALKER         LGT SNOW  30  28  95 NE7       30.17S VSB 3/4 WCI  23
$$
MNZ012-019>021-037-231600-
   Northeast Minnesota

CITY           SKY/WX    TMP DP  RH WIND       PRES   REMARKS
DULUTH         LGT SNOW  33  32  96 E10       30.18R FOG     WCI  25
ELY            CLOUDY    30  19  64 N5        30.21S WCI  25
HIBBING        CLOUDY    31  24  75 E10       30.19F WCI  22
EVELETH        CLOUDY    32  22  66 NE7       30.21F WCI  26
DULUTH HARBOR  MIX PCPN  36  34  93 NE18      30.23R
TWO HARBORS    CLOUDY    37  32  81 E6        30.19S
SILVER BAY     CLOUDY    34  28  80 NE7       30.20R WCI  28
GRAND MARAIS     N/A     38  21  50 CALM      30.23F
G MARAIS ARPRT CLOUDY    28  14  54 N8        30.18F WCI  20
$$
MNZ029>031-032-039>041-046>048-054>057-064-231600-
   West Central Minnesota

CITY           SKY/WX    TMP DP  RH WIND       PRES   REMARKS
FERGUS FALLS   CLOUDY    43  34  70 E13G23    30.09F
WHEATON        CLOUDY    45  37  76 NE12      30.09S
MORRIS         MOSUNNY   50  41  71 E20       30.05F
ALEXANDRIA     CLOUDY    43  36  76 E17       30.09F
ELBOW LAKE     FAIR      44  37  77 E18G29    30.08S
WADENA         CLOUDY    36  32  87 NE13G18   30.12S
GLENWOOD       MOSUNNY   46  39  76 E23G29    30.08F
APPLETON       MOSUNNY   52  43  71 SE14      30.05F
BENSON         PTSUNNY   54  37  54 SE9G16    30.07F
ORTONVILLE     CLOUDY    48  41  76 SE8       30.05S
MADISON        MOSUNNY   48  43  81 SE7       30.05F
WILLMAR        FAIR      54  43  66 E15       30.08F
$$
MNZ033>034-036-042>043-049>051-058-059-231600-
   Central Minnesota

CITY           SKY/WX    TMP DP  RH WIND       PRES   REMARKS
ST CLOUD       CLOUDY    45  38  76 E10G20    30.11F
SAUK CENTRE    CLOUDY    43  37  79 E14       30.10F
PAYNESVILLE    MOSUNNY   49  38  66 NE13      30.09F
AITKIN         MIX PCPN  34  28  80 NE8       30.16F WCI  27
PINE RIVER     FLURRIES  34  30  86 E13       30.19F WCI  25
BRAINERD       CLOUDY    36  32  85 NE14      30.16F
STAPLES        CLOUDY    37  30  75 E12G20    30.13F
LONG PRAIRIE   CLOUDY    41  34  75 NE14G21   30.11F
LITTLE FALLS   CLOUDY    41  34  75 E8G20     30.13F
LITCHFIELD     MOSUNNY   52  43  71 E10       30.09F
BUFFALO        SUNNY     51  39  65 NE12      30.11S
MAPLE LAKE     SUNNY     52  42  68 E10       30.11S
HUTCHINSON     CLOUDY    53  43  70 NE9       30.09F
$$
MNZ037-044-045-052-053-231600-
   East Central Minnesota

CITY           SKY/WX    TMP DP  RH WIND       PRES   REMARKS
PRINCETON      CLOUDY    46  39  76 N12G17    30.13S
MORA           CLOUDY    37  34  87 E8        30.17S
CAMBRIDGE      CLOUDY    46  36  66 NE9G17    30.11S
RUSH CITY      CLOUDY    43  36  78 NE10      30.14S
MOOSE LAKE     LGT RAIN  34  32  93 N8        30.17S WCI  27
HINCKLEY       CLOUDY    39  36  87 NE9       30.16S
CLOQUET        LGT SNOW  34  30  86 NE5       30.18S WCI  30
MCGREGOR       CLOUDY    32  30  93 NE7       30.18F WCI  26
$$
MNZ071>073-080-081-089-090-097-098-231600-
   Southwest Minnesota

CITY           SKY/WX    TMP DP  RH WIND       PRES   REMARKS
MONTEVIDEO     MOSUNNY   52  43  71 S9        30.06F
GRANITE FALLS  MOSUNNY   52  43  72 SE6       30.08F
CANBY          PTSUNNY   46  40  81 CALM      30.06F
MARSHALL       MOSUNNY   49  40  71 SE5       30.06F
REDWOOD FALLS  SUNNY     53  42  66 S3        30.07F
OLIVIA         SUNNY     54  43  66 E8        30.06F
PIPESTONE      SUNNY     57  32  38 SW16      30.04F
WINDOM         SUNNY     63  30  29 SW14      30.07F
WORTHINGTON    SUNNY     60  34  37 SW17      30.07F
JACKSON        SUNNY     61  30  31 SW17G23   30.09F
TRACY          MOSUNNY   52  43  71 CALM      30.07F
SLAYTON        SUNNY     57  34  40 SW21      30.06F
$$
MNZ065>067-074>077-082>085-091>093-231600-
   South Central Minnesota

CITY           SKY/WX    TMP DP  RH WIND       PRES   REMARKS
MANKATO        SUNNY     58  37  45 VRB5      30.09F
NEW ULM        SUNNY     57  37  47 CALM      30.08F
ST JAMES       SUNNY     57  37  47 SW3       30.09F
FAIRMONT       SUNNY     62  33  33 W18       30.09F
GLENCOE        MOSUNNY   54  46  73 NE5       30.09S
FARIBAULT      SUNNY     61  39  44 SW6       30.09S
OWATONNA       SUNNY     57  37  47 W7        30.09F
WASECA         SUNNY     57  36  44 W8        30.11S
ALBERT LEA     SUNNY     61  30  31 W8        30.10S
$$
MNZ078>079-086>088-094>096-231600-
   Southeast Minnesota

CITY           SKY/WX    TMP DP  RH WIND       PRES   REMARKS
ROCHESTER      SUNNY     62  39  42 W9        30.10F
RED WING       SUNNY     59  37  44 W3        30.08S
STANTON        SUNNY     59  41  50 NW3       30.07F
DODGE CENTER   SUNNY     59  39  47 W8        30.10S
WINONA         SUNNY     61  37  41 W6        30.10F
AUSTIN         SUNNY     61  37  41 W10       30.10F
PRESTON        SUNNY     61  36  38 W14       30.11F
$$
ABBREVIATIONS USED IN REMARKS
   TC - TEMPERATURES IN CELSIUS
  WCI - WIND CHILL INDEX
   HX - HEAT INDEX
  VSB - VISIBILITY
$$




USA.gov is the U.S. government's official web portal to all federal, state and local government web resources and services.